sat.trackr.live / text

‹ back to catalog

STARLINK-37354

NORAD 68743 · 2026-082R

PAYLOAD ACTIVE UNKNOWN

§ Identity

Operator
Country
US
Launch date
2026-04-15
Launch site
AFWTR
Launch vehicle
Mass (kg)
RCS (m²)

Purposes: comms

External: N2YO · Heavens-Above · Gunter

§ Orbital elements

Epoch: 2026-09-20T03:11:21.014304Z

Period
93.91 min
Inclination
97.2851°
Eccentricity
0.0001741
Mean motion
15.33441835 rev/d
Perigee alt
464.4 km
Apogee alt
466.7 km
Semi-major
6,843.7 km
B*
2.2299e-4
RAAN
125.3579°
Arg perigee
90.9143°
Mean anomaly
269.2299°
Rev number
2,425

§ Raw data

STARLINK-373541 68743U 26082R   26263.13288211  .00007130  00000+0  22299-3 0  99982 68743  97.2851 125.3579 0001741  90.9143 269.2299 15.33441835 24252

JSON: /api/v1/satellites/68743 · /tle

For live sub-satellite position, see the globe view (requires WebGL).

§ Visibility from observer

Set your observer location to see the next 7 days of passes ≥ 10°. The values pass through the URL so the page stays shareable.

No JS? Fill the form by hand. The geolocation button needs JavaScript.